Location: Valentinhaft
(48.0370°N, 13.1914°E)
Time: 16:06:58
(UTC+01:00)

ISS - Visible Passes

Search period start: 03 December 2023 00:00
Search period end: 13 December 2023 00:00
Orbit: 415 x 417 km, 51.6° (Epoch: 03 December)

Date Brightness Start Highest point End Pass type
(mag) Time Alt. Az. Time Alt. Az. Time Alt. Az.
03 Dec -2.0 18:17:53 10° W 18:20:51 29° SW 18:22:31 19° S visible
04 Dec -2.7 17:29:14 10° WNW 17:32:27 45° SSW 17:35:40 10° SE visible
05 Dec -0.7 18:18:29 10° WSW 18:20:12 13° SW 18:21:54 10° SSW visible
06 Dec -1.0 17:29:13 10° W 17:31:49 21° SW 17:34:23 10° S visible
